DELTA 1 DEB

Satellite information

Favourite Embed

Satellite Type and Status

DEBRISIN ORBIT

Key statistics

Satellite DELTA 1 DEB at a glance.

Uptime

18491

Days in orbit

Revolutions

≈ 14.5

Per day

Orbit

SSO

Sun Synchronous Orbit

Inclination

97.6

Latest

Satellite identification and parameters

Extended collection of information and parameters for DELTA 1 DEB.

Object identification

Identified? True

Debris? True

Object name: DELTA 1 DEB

International designator: 1975-004BP

Object number (NORAD): 8981

Object ID (CCSDS): 8981

Country: UNITED STATES OF AMERICA (US)

Current information (Y/N): Y

RCS size: SMALL

Orbital parameters

Period: 99.498 minutes

Inclination: 97.6431 deg

SMA: 7112.737 km

Apoapsis: 815.284 km

Periapsis: 653.92 km

RAAN: 73.2084 deg

Eccentricy: 0.01134332

Argument of periapsis: 302.4698 deg

Mean anomaly: 56.557 deg

Mean motion: 14.47263606 rev/day

Mean motion (dot): 0.00002279 rev/day2

B* drag term: 0.00058577384 1/REarth

Two-line elements (TLE)

Creation date: Sept. 7, 2025, 3:09 a.m.

Reference frame: TEME

Reference center: EARTH

Epoch: Sept. 6, 2025, 6:27 p.m. UTC

TLE line 0: 0 DELTA 1 DEB

TLE line 1: 1 08981U 75004BP 25249.76937875 .00002279 00000-0 58577-3 0 9991

TLE line 2: 2 08981 97.6431 73.2084 0113433 302.4698 56.5570 14.47263606574721

Live tracking on map

Real-time ground track for satellite DELTA 1 DEB.

In-orbit conjunctions

A list of the most updated potential collisions computed for object DELTA 1 DEB.

Target Orbit TCA Probability of collision Miss distance Type
COSMOS 1867 COOLANT LEO 2025-07-21 12:24:17 0.0001344891 116.0 (m) DEBRIS
DMSP 5D-2 F13 DEB SSO 2024-11-09 15:16:34 0.0003237251 498.0 (m) DEBRIS
CZ-6A DEB LEO 2024-10-29 16:15:54 0.0001672549 450.0 (m) DEBRIS

Associated space launch

Earth observation satellite

DELTA 1 DEB was lifted into orbit during the mission ‘Delta 2910 | Landsat 2’, on board a Delta 2910 space rocket.

The launch took place on Jan. 22, 1975, 5:55 p.m. from Space Launch Complex 2W.

For more information about the launch, click the button.

Launch to space Delta 2910 | Landsat 2
Delta 2910 | Landsat 2

Agency: N/A

Status: Launch Successful

Launch date: Jan. 22, 1975, 5:55 p.m. UTC

Rocket: Delta 2910

Launch pad: Space Launch Complex 2W

Location: Vandenberg SFB, CA, USA

...

Latest news about this satellite

There are no fresh news available about this satellite. Check back as we update our databases every day.


Newsletter sign-up

Weekly statistics, charts and insights to help you stay on top of the space industry.